AB4KN Weather Reports


Display with metric or nautical units.
time (UTC)temp
F
wind
direction
speed
MPH
gust
MPH
rain 1hr
in
rain 24hr
in
rain mn
in
humidity
%
barometer
mb
20260902031520 81 281 0.0 0.0 0.00 0.00 0.00 74 1024.1
20260902031016 81 281 0.0 0.0 0.00 0.00 0.00 74 1024.1
20260902030511 81 281 0.0 0.0 0.00 0.00 0.00 73 1024.3
20260902030011 81 281 0.0 0.0 0.00 0.00 0.00 72 1024.1
20260902025505 81 281 0.0 0.0 0.00 0.00 0.00 72 1023.9
20260902025000 81 281 0.0 0.0 0.00 0.00 0.00 71 1024.0
20260902024456 82 281 0.0 0.0 0.00 0.00 0.00 73 1023.9
20260902023950 82 281 0.0 0.0 0.00 0.00 0.00 73 1023.9
20260902023446 82 281 0.0 0.0 0.00 0.00 0.00 72 1023.9
20260902022945 82 281 0.0 0.0 0.00 0.00 0.00 71 1023.9
20260902022441 82 281 0.0 0.0 0.00 0.00 0.00 72 1023.9
20260902021936 82 281 0.0 0.0 0.00 0.00 0.00 72 1023.8
20260902021431 82 281 0.0 0.0 0.00 0.00 0.00 71 1023.7
20260902020926 82 281 0.0 0.0 0.00 0.00 0.00 71 1023.6
20260902020423 82 281 0.0 0.0 0.00 0.00 0.00 70 1023.7
20260902015918 83 281 0.0 0.0 0.00 0.00 0.00 70 1023.6
20260902015414 83 281 0.0 0.0 0.00 0.00 0.00 70 1023.8
20260902014909 83 281 0.0 0.0 0.00 0.00 0.00 70 1023.7
20260902014406 83 281 0.0 0.0 0.00 0.00 0.00 69 1023.5
20260902013904 83 281 0.0 0.0 0.00 0.00 0.00 68 1023.4
20260902013400 83 281 0.0 0.0 0.00 0.00 0.00 69 1023.2
20260902012855 83 281 0.0 0.0 0.00 0.00 0.00 67 1023.3
20260902012351 84 281 0.0 0.0 0.00 0.00 0.00 68 1023.2
20260902011847 84 281 0.0 0.0 0.00 0.00 0.00 67 1023.1
20260902011341 84 281 0.0 0.0 0.00 0.00 0.00 64 1023.0
20260902010841 84 281 0.0 0.0 0.00 0.00 0.00 65 1023.1
20260902010336 84 281 0.0 0.0 0.00 0.00 0.00 65 1023.0
20260902005834 84 281 0.0 0.0 0.00 0.00 0.00 65 1023.0
20260902005329 85 281 0.0 0.0 0.00 0.00 0.00 65 1023.2
20260902004824 85 281 0.0 0.0 0.00 0.00 0.00 63 1022.9
20260902004319 86 281 0.0 0.0 0.00 0.00 0.00 62 1023.0
20260902003814 86 281 0.0 0.0 0.00 0.00 0.00 61 1022.7
20260902003309 86 281 0.0 0.0 0.00 0.00 0.00 61 1023.0
20260902002805 86 281 0.0 0.0 0.00 0.00 0.00 61 1022.7
20260902002306 87 283 0.0 0.0 0.00 0.00 0.00 59 1022.6
20260902001800 87 283 0.0 0.0 0.00 0.00 0.00 59 1023.0
20260902001255 87 284 0.0 0.0 0.00 0.00 0.00 58 1023.0
20260902000749 87 284 0.0 0.0 0.00 0.00 0.00 58 1022.9
20260902000244 88 284 0.0 0.0 0.00 0.00 0.00 57 1023.2
20260901235739 88 285 0.0 0.0 0.00 0.00 0.00 56 1022.9
20260901235234 89 285 0.0 0.0 0.00 0.00 0.00 55 1023.0
20260901234733 89 285 0.0 0.0 0.00 0.00 0.00 55 1023.0
20260901234233 89 285 0.0 0.0 0.00 0.00 0.00 54 1023.1
20260901233728 89 285 0.0 0.0 0.00 0.00 0.00 53 1023.0
20260901233224 90 282 0.0 0.0 0.00 0.00 0.00 53 1023.1
20260901232719 90 282 0.0 0.0 0.00 0.00 0.00 52 1023.2
20260901232214 90 282 0.0 0.0 0.00 0.00 0.00 52 1023.2
20260901231711 90 282 0.0 0.0 0.00 0.00 0.00 52 1023.3
20260901231206 91 282 0.0 0.0 0.00 0.00 0.00 52 1023.2
20260901230702 91 282 0.0 0.0 0.00 0.00 0.00 51 1023.0
20260901230201 91 286 0.0 0.0 0.00 0.00 0.00 51 1023.0
20260901225657 91 297 0.0 0.0 0.00 0.00 0.00 50 1022.7
20260901225151 91 297 0.0 0.0 0.00 0.00 0.00 50 1023.2
20260901224647 92 297 0.0 0.0 0.00 0.00 0.00 50 1023.2
20260901224143 92 297 0.0 0.0 0.00 0.00 0.00 49 1023.0
20260901223639 92 297 0.0 0.0 0.00 0.00 0.00 48 1022.9
20260901223134 92 297 0.0 0.0 0.00 0.00 0.00 48 1022.7
20260901222630 92 297 0.0 0.0 0.00 0.00 0.00 50 1022.9
20260901222126 92 297 0.0 0.0 0.00 0.00 0.00 50 1022.9
20260901221622 92 276 0.0 0.0 0.00 0.00 0.00 51 1022.7
20260901221117 92 263 0.0 0.0 0.00 0.00 0.00 50 1023.0
20260901220616 92 274 0.0 0.0 0.00 0.00 0.00 50 1022.9
20260901220115 92 278 0.0 0.0 0.00 0.00 0.00 51 1022.9
20260901215614 92 238 0.0 0.0 0.00 0.00 0.00 50 1023.0
20260901215108 92 238 0.0 0.0 0.00 0.00 0.00 49 1023.2
20260901214607 93 271 0.0 0.0 0.00 0.00 0.00 49 1023.0
20260901214107 92 287 0.0 0.0 0.00 0.00 0.00 49 1023.1
20260901213601 92 275 0.0 0.0 0.00 0.00 0.00 50 1023.0
20260901213055 92 292 0.0 0.0 0.00 0.00 0.00 49 1022.9
20260901212555 92 261 0.0 0.0 0.00 0.00 0.00 47 1023.0
20260901212052 91 263 0.0 0.0 0.00 0.00 0.00 53 1023.0
20260901211547 91 262 0.0 0.0 0.00 0.00 0.00 52 1023.1
20260901211043 91 262 0.0 0.0 0.00 0.00 0.00 52 1023.3
20260901210538 90 262 0.0 0.0 0.00 0.00 0.00 52 1023.1
20260901210035 90 262 0.0 0.0 0.00 0.00 0.00 51 1023.2
20260901205529 91 262 0.0 0.0 0.00 0.00 0.00 51 1022.9
20260901205024 91 262 0.0 0.0 0.00 0.00 0.00 51 1023.3
20260901204520 92 262 0.0 0.0 0.00 0.00 0.00 51 1023.3
20260901204015 92 262 0.0 0.0 0.00 0.00 0.00 49 1023.2
20260901203509 93 262 0.0 0.0 0.00 0.00 0.00 47 1023.2
20260901203004 93 259 0.0 0.0 0.00 0.00 0.00 47 1023.4
20260901202459 93 281 0.0 0.0 0.00 0.00 0.00 48 1023.4
20260901201955 93 299 0.0 0.0 0.00 0.00 0.00 48 1023.6
20260901201450 92 276 0.0 0.0 0.00 0.00 0.00 50 1023.5
20260901200944 93 276 0.0 0.0 0.00 0.00 0.00 49 1023.3
20260901200439 93 276 0.0 0.0 0.00 0.00 0.00 48 1023.4
20260901195938 94 263 0.0 0.0 0.00 0.00 0.00 47 1023.6
20260901195437 93 263 0.0 0.0 0.00 0.00 0.00 45 1023.5
20260901194932 94 268 0.0 0.0 0.00 0.00 0.00 46 1023.6
20260901194427 93 251 0.0 0.0 0.00 0.00 0.00 44 1023.9
20260901193923 94 257 0.0 0.0 0.00 0.00 0.00 43 1023.7
20260901193422 94 312 0.0 0.0 0.00 0.00 0.00 47 1023.8
20260901192921 94 306 0.0 0.0 0.00 0.00 0.00 46 1024.0
20260901192417 94 284 0.0 0.0 0.00 0.00 0.00 46 1024.0
20260901191913 94 261 0.0 0.0 0.00 0.00 0.00 46 1024.0
20260901191409 91 246 0.0 0.0 0.00 0.00 0.00 47 1024.1
20260901190905 90 279 0.0 0.0 0.00 0.00 0.00 55 1024.1
20260901190405 90 176 0.0 0.0 0.00 0.00 0.00 52 1024.1
20260901185903 90 297 0.0 0.0 0.00 0.00 0.00 55 1024.2
20260901185402 90 297 0.0 0.0 0.00 0.00 0.00 54 1024.5
20260901184857 90 297 0.0 0.0 0.00 0.00 0.00 55 1024.4
20260901184353 90 297 0.0 0.0 0.00 0.00 0.00 53 1024.5
20260901183848 91 297 0.0 0.0 0.00 0.00 0.00 53 1024.5
20260901183347 91 297 0.0 0.0 0.00 0.00 0.00 51 1024.5
20260901182843 91 297 0.0 0.0 0.00 0.00 0.00 52 1024.5
20260901182343 91 297 0.0 0.0 0.00 0.00 0.00 52 1024.5
20260901181838 92 297 0.0 0.0 0.00 0.00 0.00 51 1024.5
20260901181333 92 297 0.0 0.0 0.00 0.00 0.00 52 1024.3
20260901180832 93 296 0.0 0.0 0.00 0.00 0.00 51 1024.6
20260901180332 93 296 0.0 0.0 0.00 0.00 0.00 50 1024.6
20260901175830 93 295 0.0 0.0 0.00 0.00 0.00 48 1024.8
20260901175325 93 295 0.0 0.0 0.00 0.00 0.00 50 1024.7
20260901174820 92 296 0.0 0.0 0.00 0.00 0.00 50 1024.7
20260901174316 94 298 0.0 0.0 0.00 0.00 0.00 50 1025.1
20260901173811 95 279 0.0 0.0 0.00 0.00 0.00 49 1025.0
20260901173306 95 250 0.0 0.0 0.00 0.00 0.00 47 1024.9
20260901172803 94 271 0.0 0.0 0.00 0.00 0.00 48 1025.1
20260901172304 93 228 1.0 2.0 0.00 0.00 0.00 48 1025.2
20260901171800 91 281 0.0 0.0 0.00 0.00 0.00 52 1025.3
20260901171259 92 283 0.0 0.0 0.00 0.00 0.00 52 1025.4
20260901170759 93 279 0.0 0.0 0.00 0.00 0.00 52 1025.2
20260901170258 93 287 0.0 0.0 0.00 0.00 0.00 53 1025.4
20260901165757 93 244 0.0 0.0 0.00 0.00 0.00 51 1025.3
20260901165252 93 282 0.0 0.0 0.00 0.00 0.00 51 1025.4
20260901164749 91 296 0.0 0.0 0.00 0.00 0.00 54 1025.3
20260901164244 90 286 0.0 0.0 0.00 0.00 0.00 56 1025.5
20260901163739 91 297 0.0 0.0 0.00 0.00 0.00 55 1025.6
20260901163238 91 297 0.0 0.0 0.00 0.00 0.00 54 1025.8
20260901162734 91 294 0.0 0.0 0.00 0.00 0.00 54 1026.0
20260901162233 91 293 0.0 0.0 0.00 0.00 0.00 54 1025.9
20260901161732 90 295 0.0 0.0 0.00 0.00 0.00 58 1025.8
20260901161227 89 297 0.0 0.0 0.00 0.00 0.00 58 1025.9
20260901160723 90 295 0.0 0.0 0.00 0.00 0.00 58 1026.3
20260901160218 90 322 0.0 0.0 0.00 0.00 0.00 60 1026.0
20260901155717 90 285 0.0 0.0 0.00 0.00 0.00 60 1025.9
20260901155213 89 262 0.0 0.0 0.00 0.00 0.00 59 1026.0
20260901154708 89 286 0.0 0.0 0.00 0.00 0.00 60 1026.0
20260901154203 89 251 0.0 0.0 0.00 0.00 0.00 61 1026.2
20260901153658 88 285 0.0 0.0 0.00 0.00 0.00 62 1026.2
20260901153157 89 285 0.0 0.0 0.00 0.00 0.00 62 1026.0
20260901152652 88 286 0.0 0.0 0.00 0.00 0.00 62 1026.1
20260901152150 88 256 0.0 0.0 0.00 0.00 0.00 64 1026.0
20260901151647 87 284 0.0 0.0 0.00 0.00 0.00 65 1026.1
20260901151146 88 283 0.0 0.0 0.00 0.00 0.00 64 1026.2
20260901150645 88 247 3.0 5.0 0.00 0.00 0.00 63 1026.2
20260901150143 87 270 0.0 0.0 0.00 0.00 0.00 65 1026.0
20260901145642 87 266 0.0 0.0 0.00 0.00 0.00 66 1025.9
20260901145142 87 283 0.0 0.0 0.00 0.00 0.00 69 1026.0
20260901144637 87 249 0.0 0.0 0.00 0.00 0.00 66 1026.2
20260901144132 86 219 0.0 0.0 0.00 0.00 0.00 67 1026.1
20260901143628 85 253 0.0 0.0 0.00 0.00 0.00 68 1025.9
20260901143124 84 281 0.0 0.0 0.00 0.00 0.00 72 1026.2
20260901142620 84 284 0.0 0.0 0.00 0.00 0.00 71 1026.3
20260901142119 84 284 0.0 0.0 0.00 0.00 0.00 72 1026.2
20260901141614 83 282 0.0 0.0 0.00 0.00 0.00 73 1026.3
20260901141108 83 282 0.0 0.0 0.00 0.00 0.00 75 1026.3
20260901140607 83 274 0.0 0.0 0.00 0.00 0.00 74 1026.1
20260901140106 83 274 0.0 0.0 0.00 0.00 0.00 75 1026.3
20260901135601 82 263 1.0 2.0 0.00 0.00 0.00 77 1026.1
20260901135056 81 274 0.0 0.0 0.00 0.00 0.00 78 1026.2
20260901134552 81 278 0.0 0.0 0.00 0.00 0.00 79 1026.1
20260901134053 81 278 0.0 0.0 0.00 0.00 0.00 79 1026.0
20260901133551 80 222 0.0 0.0 0.00 0.00 0.00 79 1026.0
20260901133050 79 281 0.0 0.0 0.00 0.00 0.00 81 1026.2
20260901132545 79 281 0.0 0.0 0.00 0.00 0.00 82 1026.1
20260901132045 78 281 0.0 0.0 0.00 0.00 0.00 82 1026.1
20260901131539 78 281 0.0 0.0 0.00 0.00 0.00 83 1026.2
20260901131034 77 281 0.0 0.0 0.00 0.00 0.00 83 1026.0
20260901130534 77 281 0.0 0.0 0.00 0.00 0.00 84 1026.0
20260901130033 76 281 0.0 0.0 0.00 0.00 0.00 84 1026.1
20260901125531 76 281 0.0 0.0 0.00 0.00 0.00 85 1025.9
20260901125027 75 281 0.0 0.0 0.00 0.00 0.00 85 1026.0
20260901124521 75 281 0.0 0.0 0.00 0.00 0.00 86 1025.8
20260901124021 75 281 0.0 0.0 0.00 0.00 0.00 86 1026.0
20260901123516 74 280 0.0 0.0 0.00 0.00 0.00 86 1025.9
20260901123016 74 280 0.0 0.0 0.00 0.00 0.00 86 1025.8
20260901122515 74 281 0.0 0.0 0.00 0.00 0.00 87 1025.9
20260901122014 74 281 0.0 0.0 0.00 0.00 0.00 87 1025.9
20260901121509 73 280 0.0 0.0 0.00 0.00 0.00 87 1025.9
20260901121004 73 280 0.0 0.0 0.00 0.00 0.00 87 1025.9
20260901120504 73 280 0.0 0.0 0.00 0.00 0.00 87 1025.8
20260901115959 73 280 0.0 0.0 0.00 0.00 0.00 87 1025.6
20260901115454 73 280 0.0 0.0 0.00 0.00 0.00 87 1025.5
20260901114951 73 280 0.0 0.0 0.00 0.00 0.00 87 1025.4
20260901114447 73 280 0.0 0.0 0.00 0.00 0.00 87 1025.6
20260901113945 73 280 0.0 0.0 0.00 0.00 0.00 87 1025.2
20260901113444 73 280 0.0 0.0 0.00 0.00 0.00 87 1025.4
20260901112940 73 280 0.0 0.0 0.00 0.00 0.00 86 1025.4
20260901112435 72 280 0.0 0.0 0.00 0.00 0.00 87 1025.2
20260901111930 72 280 0.0 0.0 0.00 0.00 0.00 86 1025.1
20260901111428 72 280 0.0 0.0 0.00 0.00 0.00 86 1024.9
20260901110927 72 280 0.0 0.0 0.00 0.00 0.00 87 1025.1
20260901110422 72 280 0.0 0.0 0.00 0.00 0.00 86 1024.9
20260901105919 72 280 0.0 0.0 0.00 0.00 0.00 86 1024.8
20260901105414 72 280 0.0 0.0 0.00 0.00 0.00 86 1024.8
20260901104910 73 280 0.0 0.0 0.00 0.00 0.00 86 1024.9
20260901104405 73 280 0.0 0.0 0.00 0.00 0.00 86 1024.9
20260901103901 73 280 0.0 0.0 0.00 0.00 0.00 86 1024.9
20260901103400 73 280 0.0 0.0 0.00 0.00 0.00 86 1024.9
20260901102855 73 280 0.0 0.0 0.00 0.00 0.00 86 1024.7
20260901102349 73 280 0.0 0.0 0.00 0.00 0.00 86 1024.9
20260901101845 73 280 0.0 0.0 0.00 0.00 0.00 86 1024.6
20260901101345 73 280 0.0 0.0 0.00 0.00 0.00 85 1024.9
20260901100844 73 280 0.0 0.0 0.00 0.00 0.00 86 1024.8
20260901100339 73 280 0.0 0.0 0.00 0.00 0.00 86 1024.6
20260901095839 73 280 0.0 0.0 0.00 0.00 0.00 85 1024.7
20260901095336 73 280 0.0 0.0 0.00 0.00 0.00 86 1024.6
20260901094830 73 280 0.0 0.0 0.00 0.00 0.00 85 1024.6
20260901094325 73 280 0.0 0.0 0.00 0.00 0.00 85 1024.5
20260901093820 73 280 0.0 0.0 0.00 0.00 0.00 85 1024.5
20260901093319 73 280 0.0 0.0 0.00 0.00 0.00 85 1024.5
20260901092816 74 280 0.0 0.0 0.00 0.00 0.00 85 1024.6
20260901092311 74 280 0.0 0.0 0.00 0.00 0.00 84 1024.6
20260901091807 74 280 0.0 0.0 0.00 0.00 0.00 84 1024.3
20260901091306 74 280 0.0 0.0 0.00 0.00 0.00 84 1024.4
20260901090801 74 280 0.0 0.0 0.00 0.00 0.00 84 1024.3
20260901090256 74 280 0.0 0.0 0.00 0.00 0.00 83 1024.3
20260901085753 74 280 0.0 0.0 0.00 0.00 0.00 83 1024.7
20260901085247 74 280 0.0 0.0 0.00 0.00 0.00 83 1024.5
20260901084744 74 280 0.0 0.0 0.00 0.00 0.00 83 1024.5
20260901084240 74 280 0.0 0.0 0.00 0.00 0.00 83 1024.2
20260901083740 74 280 0.0 0.0 0.00 0.00 0.00 83 1024.4
20260901083239 75 280 0.0 0.0 0.00 0.00 0.00 84 1024.3
20260901082738 75 280 0.0 0.0 0.00 0.00 0.00 83 1024.4
20260901082233 75 280 0.0 0.0 0.00 0.00 0.00 83 1024.4
20260901081729 75 280 0.0 0.0 0.00 0.00 0.00 82 1024.5
20260901081228 75 280 0.0 0.0 0.00 0.00 0.00 82 1024.3
20260901080724 75 280 0.0 0.0 0.00 0.00 0.00 82 1024.5
20260901080223 75 280 0.0 0.0 0.00 0.00 0.00 82 1024.1
20260901075722 75 280 0.0 0.0 0.00 0.00 0.00 82 1024.1
20260901075218 75 280 0.0 0.0 0.00 0.00 0.00 82 1024.4
20260901074712 75 280 0.0 0.0 0.00 0.00 0.00 82 1024.2
20260901074208 75 280 0.0 0.0 0.00 0.00 0.00 83 1024.0
20260901073704 75 280 0.0 0.0 0.00 0.00 0.00 83 1024.0
20260901073159 75 280 0.0 0.0 0.00 0.00 0.00 82 1024.2
20260901072654 75 280 0.0 0.0 0.00 0.00 0.00 83 1024.1
20260901072148 75 280 0.0 0.0 0.00 0.00 0.00 83 1024.1
20260901071643 75 280 0.0 0.0 0.00 0.00 0.00 83 1024.0
20260901071143 75 280 0.0 0.0 0.00 0.00 0.00 82 1023.9
20260901070637 75 280 0.0 0.0 0.00 0.00 0.00 82 1024.0
20260901070133 75 280 0.0 0.0 0.00 0.00 0.00 82 1024.2
20260901065631 75 280 0.0 0.0 0.00 0.00 0.00 82 1024.2
20260901065126 75 280 0.0 0.0 0.00 0.00 0.00 82 1024.3
20260901064623 75 280 0.0 0.0 0.00 0.00 0.00 82 1024.2
20260901064119 75 280 0.0 0.0 0.00 0.00 0.00 82 1024.3
20260901063616 75 280 0.0 0.0 0.00 0.00 0.00 82 1024.4
20260901063112 75 280 0.0 0.0 0.00 0.00 0.00 82 1024.5
20260901062608 75 280 0.0 0.0 0.00 0.00 0.00 82 1024.6
20260901062103 75 280 0.0 0.0 0.00 0.00 0.00 82 1024.4
20260901061600 75 280 0.0 0.0 0.00 0.00 0.00 82 1024.6
20260901061054 75 280 0.0 0.0 0.00 0.00 0.00 82 1024.6
20260901060549 75 280 0.0 0.0 0.00 0.00 0.00 82 1024.6
20260901060044 76 280 0.0 0.0 0.00 0.00 0.00 82 1024.6
20260901055539 76 280 0.0 0.0 0.00 0.00 0.00 81 1024.5
20260901055036 76 280 0.0 0.0 0.00 0.00 0.00 81 1024.6
20260901054533 76 280 0.0 0.0 0.00 0.00 0.00 81 1024.5
20260901054029 76 280 0.0 0.0 0.00 0.00 0.00 81 1024.7
20260901053524 76 280 0.0 0.0 0.00 0.00 0.00 81 1024.7
20260901053021 76 280 0.0 0.0 0.00 0.00 0.00 81 1025.0
20260901052520 76 280 0.0 0.0 0.00 0.00 0.00 81 1024.7
20260901052020 76 280 0.0 0.0 0.00 0.00 0.00 81 1024.8
20260901051515 77 280 0.0 0.0 0.00 0.00 0.00 80 1024.8
20260901051014 77 280 0.0 0.0 0.00 0.00 0.00 80 1024.9
20260901050509 77 280 0.0 0.0 0.00 0.00 0.00 80 1024.8
20260901050004 77 280 0.0 0.0 0.00 0.00 0.00 80 1024.9
20260901045459 77 280 0.0 0.0 0.00 0.00 0.00 80 1024.7
20260901044954 77 280 0.0 0.0 0.00 0.00 0.00 80 1024.8
20260901044450 77 280 0.0 0.0 0.00 0.00 0.00 79 1024.9
20260901043946 77 280 0.0 0.0 0.00 0.00 0.00 79 1024.6
20260901043442 77 280 0.0 0.0 0.00 0.00 0.00 79 1024.7
20260901042942 77 280 0.0 0.0 0.00 0.00 0.00 78 1024.6
20260901042441 77 280 0.0 0.0 0.00 0.00 0.00 78 1024.6
20260901041937 78 280 0.0 0.0 0.00 0.00 0.00 77 1025.1
20260901041432 78 280 0.0 0.0 0.00 0.00 0.00 76 1024.6
20260901040931 78 280 0.0 0.0 0.00 0.00 0.00 76 1024.8
20260901040427 78 280 0.0 0.0 0.00 0.00 0.00 78 1024.8
20260901035925 78 280 0.0 0.0 0.00 0.00 0.00 76 1024.6
20260901035424 78 280 0.0 0.0 0.00 0.00 0.00 75 1024.6
20260901034923 78 280 0.0 0.0 0.00 0.00 0.00 75 1024.9
20260901034418 78 280 0.0 0.0 0.00 0.00 0.00 75 1024.7
20260901033913 78 280 0.0 0.0 0.00 0.00 0.00 75 1024.7
20260901033412 78 280 0.0 0.0 0.00 0.00 0.00 75 1024.6
20260901032910 78 280 0.0 0.0 0.00 0.00 0.00 75 1024.8
20260901032410 78 280 0.0 0.0 0.00 0.00 0.00 75 1024.8
20260901031905 79 280 0.0 0.0 0.00 0.00 0.00 75 1024.9